"Date","subscriberCount","subscriberChange","viewCount","viewChange","videoCount","videoChange","commentCount","commentChange"
"2020-10-15 00:02:04","1620000","0","1486378144","0","1081","0","0","0"
"2020-10-16 00:02:04","1620000","0","1489029071","2650927","1084","3","0","0"
"2020-10-17 00:02:03","1620000","0","1490491346","1462275","1088","4","0","0"
"2020-10-18 00:02:04","1620000","0","1493002145","2510799","1088","0","0","0"
"2020-10-19 00:02:04","1620000","0","1495241789","2239644","1090","2","0","0"
"2020-10-20 00:02:04","1620000","0","1496877203","1635414","1090","0","0","0"
"2020-10-21 00:02:03","1620000","0","1498502752","1625549","1091","1","0","0"
"2020-10-22 00:02:03","1620000","0","1500191631","1688879","1094","3","0","0"
"2020-10-23 00:02:04","1620000","0","1502296501","2104870","1101","7","0","0"
"2020-10-24 00:02:04","1620000","0","1504144705","1848204","1102","1","0","0"
"2020-10-25 00:02:04","1620000","0","1505460936","1316231","1102","0","0","0"
"2020-10-27 00:02:04","1620000","0","1509217025","3756089","1105","3","0","0"
"2020-10-28 00:02:03","1620000","0","1510429949","1212924","1105","0","0","0"
"2020-10-29 00:02:03","1620000","0","1511947417","1517468","1105","0","0","0"
"2020-10-30 00:02:02","1620000","0","1513539752","1592335","1107","2","","0"
"2020-10-31 00:02:03","1620000","0","1514875577","1335825","1110","3","0","0"
"2020-11-01 00:02:03","1620000","0","1516426939","1551362","1109","-1","","0"
"2020-11-02 00:02:02","1620000","0","1518500608","2073669","1109","0","0","0"
"2020-11-03 00:02:03","1630000","10000","1520097590","1596982","1109","0","0","0"
"2020-11-04 00:02:03","1630000","0","1522077245","1979655","1109","0","0","0"
"2020-11-05 00:02:05","1630000","0","1523133062","1055817","1110","1","0","0"
"2020-11-06 00:02:03","1630000","0","1524938903","1805841","1112","2","0","0"
"2020-11-07 00:02:04","1630000","0","1526254910","1316007","1106","-6","0","0"
"2020-11-08 00:02:04","1630000","0","1525345835","-909075","1106","0","0","0"
"2020-11-09 00:02:06","1630000","0","1526524594","1178759","1106","0","0","0"
"2020-11-10 00:02:04","1630000","0","1527986158","1461564","1116","10","0","0"
"2020-11-11 00:02:04","1630000","0","1527608294","-377864","1117","1","0","0"
"2020-11-12 00:02:03","1630000","0","1529027563","1419269","1118","1","","0"
"2020-11-13 00:02:03","1630000","0","1530207992","1180429","1123","5","","0"
"2020-11-14 00:02:02","1630000","0","1526867388","-3340604","1124","1","","0"
"2020-11-15 00:02:02","1630000","0","1528561426","1694038","1124","0","","0"
"2020-11-16 00:02:03","1630000","0","1530318075","1756649","1124","0","","0"
"2020-11-17 00:02:02","1630000","0","1531604272","1286197","1127","3","","0"
"2020-11-18 00:02:02","1630000","0","1532041051","436779","1127","0","","0"
"2020-11-19 00:02:02","1630000","0","1533362780","1321729","1128","1","","0"
"2020-11-20 00:02:03","1630000","0","1534651549","1288769","1131","3","","0"
"2020-11-21 00:02:02","1630000","0","1535952231","1300682","1132","1","","0"
"2020-11-22 00:02:02","1630000","0","1537326178","1373947","1133","1","","0"
"2020-11-23 00:02:03","1630000","0","1538555733","1229555","1133","0","","0"
"2020-11-24 00:02:02","1630000","0","1539817007","1261274","1133","0","","0"
"2020-11-25 00:02:02","1630000","0","1540823351","1006344","1135","2","","0"
"2020-11-26 00:02:02","1630000","0","1541759063","935712","1137","2","","0"
"2020-11-27 00:02:03","1630000","0","1542853693","1094630","1129","-8","","0"
"2020-11-28 00:02:02","1630000","0","1543595130","741437","1113","-16","","0"
"2020-11-29 00:02:02","1630000","0","1543986549","391419","1114","1","","0"
"2020-11-30 00:02:03","1630000","0","1545325804","1339255","1114","0","","0"
"2020-12-01 00:02:02","1630000","0","1546484213","1158409","1090","-24","","0"
"2020-12-02 00:02:03","1630000","0","1541899841","-4584372","1091","1","","0"
"2020-12-03 00:02:02","1630000","0","1543185735","1285894","1091","0","","0"
"2020-12-04 00:02:02","1630000","0","1544629418","1443683","1093","2","","0"
"2020-12-05 00:02:05","1630000","0","1545770800","1141382","1092","-1","","0"
"2020-12-06 00:02:03","1630000","0","1547318800","1548000","1092","0","","0"
"2020-12-07 00:02:02","1630000","0","1548853398","1534598","1092","0","","0"
"2020-12-08 00:02:03","1630000","0","1549973594","1120196","1092","0","","0"
"2020-12-09 00:02:03","1630000","0","1551200524","1226930","1093","1","","0"
"2020-12-10 00:02:03","1630000","0","1552406997","1206473","1095","2","","0"
"2020-12-11 00:02:03","1630000","0","1553561461","1154464","1097","2","","0"
"2020-12-12 00:02:03","1630000","0","1554671407","1109946","1097","0","","0"
"2020-12-13 00:02:03","1630000","0","1556501063","1829656","1097","0","","0"
"2020-12-14 00:02:04","1630000","0","1557971424","1470361","1097","0","","0"
"2020-12-15 00:02:04","1630000","0","1559253147","1281723","1101","4","","0"
"2020-12-16 00:02:03","1630000","0","1559918796","665649","1101","0","","0"
"2020-12-17 00:02:04","1630000","0","1560898691","979895","1103","2","","0"
"2020-12-18 00:02:03","1630000","0","1562040179","1141488","1108","5","","0"
"2020-12-19 00:02:04","1630000","0","1558892057","-3148122","1111","3","","0"
"2020-12-20 00:02:03","1630000","0","1560132139","1240082","1111","0","","0"
"2020-12-21 00:02:03","1630000","0","1561365499","1233360","1111","0","","0"
"2020-12-22 00:02:03","1630000","0","1562192312","826813","1111","0","","0"
"2020-12-23 00:02:02","1630000","0","1562927261","734949","1114","3","","0"
"2020-12-24 00:02:04","1630000","0","1564043536","1116275","1114","0","","0"
"2020-12-25 00:02:03","1630000","0","1565171448","1127912","1114","0","","0"
"2020-12-26 00:02:03","1630000","0","1566149879","978431","1113","-1","","0"
"2020-12-27 00:02:03","1630000","0","1567228021","1078142","1117","4","","0"
"2020-12-28 00:02:04","1630000","0","1567826007","597986","1117","0","","0"
"2020-12-29 00:02:03","1630000","0","1568761623","935616","1118","1","","0"
"2020-12-30 00:02:03","1630000","0","1569939522","1177899","1118","0","","0"
"2020-12-31 00:02:02","1630000","0","1571200819","1261297","1118","0","","0"
"2021-01-01 00:02:03","1630000","0","1572514798","1313979","1118","0","","0"
"2021-01-02 00:02:04","1630000","0","1573751762","1236964","1118","0","","0"
"2021-01-03 00:02:04","1640000","10000","1574915186","1163424","1118","0","","0"
"2021-01-04 00:02:04","1640000","0","1576189124","1273938","1118","0","","0"
"2021-01-05 00:02:05","1640000","0","1577233878","1044754","1118","0","","0"
"2021-01-06 00:02:03","1640000","0","1578235972","1002094","1116","-2","","0"
"2021-01-07 00:02:02","1640000","0","1578926501","690529","1115","-1","","0"
"2021-01-08 00:02:02","1640000","0","1579977704","1051203","1117","2","","0"
"2021-01-09 00:02:02","1640000","0","1580770525","792821","1116","-1","","0"
"2021-01-10 00:02:02","1640000","0","1581444575","674050","1116","0","","0"
"2021-01-11 00:02:02","1640000","0","1582609705","1165130","1116","0","","0"
"2021-01-12 00:02:03","1640000","0","1583758004","1148299","1118","2","","0"
"2021-01-13 00:02:02","1640000","0","1584738360","980356","1125","7","","0"
"2021-01-14 00:02:02","1640000","0","1585543756","805396","1126","1","","0"
"2021-01-15 00:02:03","1640000","0","1586315912","772156","1130","4","","0"
"2021-01-16 00:02:02","1640000","0","1587343122","1027210","1130","0","","0"
"2021-01-17 00:02:02","1640000","0","1588395075","1051953","1130","0","","0"
"2021-01-18 00:02:03","1640000","0","1589979160","1584085","1130","0","","0"
"2021-01-19 00:02:02","1640000","0","1590949912","970752","1139","9","","0"
"2021-01-20 00:02:02","1640000","0","1591817787","867875","1138","-1","","0"
"2021-01-21 00:02:02","1640000","0","1592691298","873511","1138","0","","0"
"2021-01-22 00:02:02","1640000","0","1593682639","991341","1139","1","","0"
"2021-01-23 00:02:03","1640000","0","1594595647","913008","1139","0","","0"
"2021-01-24 00:02:02","1640000","0","1596158765","1563118","1139","0","","0"
"2021-01-25 00:02:02","1640000","0","1597688262","1529497","1139","0","","0"
"2021-01-26 00:02:02","1640000","0","1598772025","1083763","1141","2","","0"
"2021-01-27 00:02:03","1640000","0","1599928887","1156862","1142","1","","0"
"2021-01-28 00:02:02","1640000","0","1601068244","1139357","1143","1","","0"
"2021-01-29 00:02:03","1640000","0","1602355689","1287445","1142","-1","","0"
"2021-01-30 00:02:02","1640000","0","1599508527","-2847162","1142","0","","0"
"2021-01-31 00:02:02","1640000","0","1601062559","1554032","1142","0","","0"
"2021-02-01 00:02:03","1640000","0","1602518953","1456394","1141","-1","","0"
"2021-02-02 00:02:02","1640000","0","1603712589","1193636","1134","-7","","0"
"2021-02-03 00:02:03","1640000","0","1587314609","-16397980","1130","-4","","0"
"2021-02-04 00:02:03","1640000","0","1587323391","8782","1130","0","","0"
"2021-02-05 00:02:02","1640000","0","1588319550","996159","1134","4","","0"
"2021-02-06 00:02:03","1640000","0","1589402305","1082755","1135","1","","0"
"2021-02-07 00:02:02","1640000","0","1590609614","1207309","1135","0","","0"
"2021-02-08 00:02:03","1640000","0","1591869131","1259517","1135","0","","0"
"2021-02-09 00:02:02","1640000","0","1592796484","927353","1138","3","","0"
"2021-02-10 00:02:02","1640000","0","1593835599","1039115","1138","0","","0"
"2021-02-11 00:02:02","1640000","0","1594724015","888416","1136","-2","","0"
"2021-02-12 00:02:02","1640000","0","1595819701","1095686","1136","0","","0"
"2021-02-13 00:02:02","1640000","0","1596665866","846165","1137","1","","0"
"2021-02-14 00:02:03","1640000","0","1598127655","1461789","1137","0","","0"
"2021-02-15 00:02:02","1640000","0","1599356588","1228933","1137","0","","0"
"2021-02-16 00:02:02","1640000","0","1601007715","1651127","1137","0","","0"
"2021-02-17 00:02:02","1640000","0","1601955470","947755","1129","-8","","0"
"2021-02-18 00:02:02","1650000","10000","1597307143","-4648327","1123","-6","","0"
"2021-02-19 00:02:02","1650000","0","1598427710","1120567","1126","3","","0"
"2021-02-20 00:02:03","1650000","0","1599435764","1008054","1122","-4","","0"
"2021-02-21 00:02:02","1650000","0","1600721542","1285778","1122","0","","0"
"2021-02-22 00:02:03","1650000","0","1601784030","1062488","1122","0","","0"
"2021-02-23 00:02:02","1650000","0","1602837983","1053953","1122","0","","0"
"2021-02-24 00:02:02","1650000","0","1603573958","735975","1122","0","","0"
"2021-02-25 00:02:02","1650000","0","1604522765","948807","1116","-6","","0"
"2021-02-26 00:02:02","1650000","0","1605621550","1098785","1098","-18","","0"
"2021-02-27 00:02:02","1650000","0","1606525816","904266","1099","1","","0"
"2021-02-28 00:02:02","1650000","0","1598517250","-8008566","1099","0","","0"
"2021-03-01 00:02:02","1650000","0","1599820452","1303202","1099","0","","0"
"2021-03-02 00:02:03","1650000","0","1600870206","1049754","1098","-1","","0"
"2021-03-03 00:02:02","1650000","0","1600277332","-592874","1097","-1","","0"
"2021-03-04 00:02:02","1650000","0","1601337655","1060323","1094","-3","","0"
"2021-03-05 00:02:02","1650000","0","1601488741","151086","1094","0","","0"
"2021-03-06 00:02:02","1650000","0","1602281458","792717","1095","1","","0"
"2021-03-07 00:02:03","1650000","0","1603370371","1088913","1097","2","","0"
"2021-03-08 00:02:02","1650000","0","1604608443","1238072","1097","0","","0"
"2021-03-09 00:02:02","1650000","0","1605824469","1216026","1097","0","","0"
"2021-03-10 00:02:02","1650000","0","1606951301","1126832","1099","2","","0"
"2021-03-11 00:02:02","1650000","0","1606500729","-450572","1101","2","","0"
"2021-03-12 00:02:02","1650000","0","1607498505","997776","1104","3","","0"
"2021-03-13 00:02:02","1650000","0","1608565236","1066731","1109","5","","0"
"2021-03-14 00:02:03","1650000","0","1609592819","1027583","1108","-1","","0"
"2021-03-15 00:02:02","1650000","0","1606736404","-2856415","1108","0","","0"
"2021-03-16 00:02:01","1650000","0","1607821647","1085243","1108","0","","0"
"2021-03-17 00:02:02","1650000","0","1608728756","907109","1109","1","","0"
"2021-03-18 00:02:02","1650000","0","1609452234","723478","1112","3","","0"
"2021-03-19 00:02:02","1650000","0","1619165856","9713622","1114","2","","0"
"2021-03-20 00:02:02","1650000","0","1619602866","437010","1115","1","","0"
"2021-03-21 00:02:02","1650000","0","1620514394","911528","1115","0","","0"
"2021-03-22 00:02:02","1650000","0","1621587802","1073408","1114","-1","","0"
"2021-03-23 00:02:03","1650000","0","1622671149","1083347","1114","0","","0"
"2021-03-24 00:02:02","1650000","0","1623534605","863456","1117","3","","0"
"2021-03-25 00:02:02","1650000","0","1624434396","899791","1117","0","","0"
"2021-03-26 00:02:02","1650000","0","1625638984","1204588","1118","1","","0"
"2021-03-27 00:02:02","1650000","0","1626740075","1101091","1119","1","","0"
"2021-03-28 00:02:03","1660000","10000","1627959309","1219234","1119","0","","0"
"2021-03-29 00:02:02","1660000","0","1629048110","1088801","1118","-1","","0"
"2021-03-30 00:02:02","1660000","0","1630426564","1378454","1117","-1","","0"
"2021-03-31 00:02:02","1660000","0","1631415204","988640","1117","0","","0"
"2021-04-01 00:02:02","1660000","0","1631972570","557366","1089","-28","","0"
"2021-04-02 00:02:02","1660000","0","1632929767","957197","1088","-1","","0"
"2021-04-03 00:02:02","1660000","0","1618465210","-14464557","1089","1","","0"
"2021-04-04 00:02:02","1660000","0","1618256901","-208309","1089","0","","0"
"2021-04-05 00:02:02","1660000","0","1619421520","1164619","1089","0","","0"
"2021-04-06 00:02:02","1660000","0","1620517565","1096045","1089","0","","0"
"2021-04-07 00:02:02","1660000","0","1624417485","3899920","1088","-1","","0"
"2021-04-08 00:02:03","1660000","0","1625097392","679907","1088","0","","0"
"2021-04-09 00:02:02","1660000","0","1626036642","939250","1086","-2","","0"
"2021-04-10 00:02:02","1660000","0","1626947154","910512","1087","1","","0"
"2021-04-11 00:02:03","1660000","0","1627911496","964342","1087","0","","0"
"2021-04-12 00:02:02","1660000","0","1627426751","-484745","1087","0","","0"
"2021-04-13 00:02:03","1660000","0","1628262596","835845","1086","-1","","0"
"2021-04-14 00:02:03","1660000","0","1629398434","1135838","1086","0","","0"
"2021-04-15 00:02:03","1660000","0","1630128007","729573","1086","0","","0"
"2021-04-16 00:02:03","1660000","0","1631044930","916923","1086","0","","0"
"2021-04-17 00:02:03","1660000","0","1631891099","846169","1086","0","","0"
"2021-04-18 00:02:03","1660000","0","1632780238","889139","1086","0","","0"
"2021-04-19 00:02:03","1660000","0","1633843043","1062805","1086","0","","0"
"2021-04-20 00:02:03","1660000","0","1634873513","1030470","1086","0","","0"
"2021-04-21 00:02:02","1660000","0","1635698308","824795","1090","4","","0"
"2021-04-22 00:02:02","1660000","0","1636467658","769350","1090","0","","0"
"2021-04-23 00:02:03","1660000","0","1637354990","887332","1090","0","","0"
"2021-04-24 00:02:03","1660000","0","1638219866","864876","1089","-1","","0"
"2021-04-25 00:02:03","1660000","0","1639234695","1014829","1089","0","","0"
"2021-04-26 00:02:04","1660000","0","1640473104","1238409","1089","0","","0"
"2021-04-27 00:02:02","1660000","0","1641191871","718767","1090","1","","0"
"2021-04-28 00:02:02","1660000","0","1642457977","1266106","1090","0","","0"
"2021-04-29 00:02:03","1670000","10000","1643430417","972440","1080","-10","","0"
"2021-04-30 00:02:02","1670000","0","1644559310","1128893","1080","0","","0"
"2021-05-01 00:02:04","1670000","0","1645429149","869839","1076","-4","","0"
"2021-05-02 00:02:02","1670000","0","1646504230","1075081","1076","0","","0"
"2021-05-03 00:02:04","1670000","0","1647826530","1322300","1076","0","","0"
"2021-05-04 00:02:03","1670000","0","1648285472","458942","1077","1","","0"
"2021-05-05 00:02:03","1670000","0","1649459235","1173763","1077","0","","0"
"2021-05-06 00:02:03","1670000","0","1650575510","1116275","1077","0","","0"
"2021-05-07 00:02:03","1670000","0","1651697291","1121781","1077","0","","0"
"2021-05-08 00:02:03","1670000","0","1652474434","777143","1079","2","","0"
"2021-05-09 00:02:02","1670000","0","1653331918","857484","1080","1","","0"
"2021-05-10 00:02:04","1670000","0","1654338385","1006467","1079","-1","","0"
"2021-05-11 00:02:03","1670000","0","1655345817","1007432","1079","0","","0"
"2021-05-12 00:02:03","1670000","0","1655931724","585907","1080","1","","0"
"2021-05-13 00:02:03","1670000","0","1656712803","781079","1080","0","","0"
"2021-05-14 00:02:03","1670000","0","1656687576","-25227","1081","1","","0"
"2021-05-15 00:02:03","1670000","0","1657427065","739489","1081","0","","0"
"2021-05-16 00:02:04","1670000","0","1658182666","755601","1081","0","","0"
"2021-05-17 00:02:03","1670000","0","1659019652","836986","1081","0","","0"
"2021-05-18 00:02:04","1670000","0","1659710730","691078","1082","1","","0"
"2021-05-19 00:02:02","1670000","0","1660448332","737602","1082","0","","0"
"2021-05-20 00:02:02","1670000","0","1661152745","704413","1082","0","","0"
"2021-05-21 00:02:03","1670000","0","1661702116","549371","1083","1","","0"
"2021-05-22 00:02:03","1670000","0","1662392545","690429","1084","1","","0"
"2021-05-23 00:02:04","1670000","0","1663231076","838531","1085","1","","0"
"2021-05-24 00:02:03","1670000","0","1664125083","894007","1085","0","","0"
"2021-05-25 00:02:03","1670000","0","1664874163","749080","1080","-5","","0"
"2021-05-26 00:02:02","1670000","0","1665746779","872616","1079","-1","","0"
"2021-05-27 00:02:03","1670000","0","1663022104","-2724675","1076","-3","","0"
"2021-05-28 00:02:03","1670000","0","1663551999","529895","1076","0","","0"
"2021-05-29 00:02:03","1670000","0","1664066325","514326","1080","4","","0"
"2021-05-30 00:02:04","1670000","0","1665715963","1649638","1080","0","","0"
"2021-05-31 00:02:03","1670000","0","1666755992","1040029","1080","0","","0"
"2021-06-01 00:02:03","1670000","0","1667509499","753507","1081","1","","0"
"2021-06-02 00:02:02","1670000","0","1668317633","808134","1089","8","","0"
"2021-06-03 00:02:03","1670000","0","1669042300","724667","1081","-8","","0"
"2021-06-04 00:02:03","1670000","0","1668410294","-632006","1080","-1","","0"
"2021-06-05 00:02:03","1680000","10000","1669078232","667938","1082","2","","0"
"2021-06-06 00:02:03","1680000","0","1669851343","773111","1082","0","","0"
"2021-06-07 00:02:02","1680000","0","1670742061","890718","1082","0","","0"
"2021-06-08 00:02:03","1680000","0","1671653265","911204","1082","0","","0"
"2021-06-09 00:02:02","1680000","0","1672364320","711055","1080","-2","","0"
"2021-06-10 00:02:02","1680000","0","1672487820","123500","1080","0","","0"
"2021-06-11 00:02:03","1680000","0","1672844601","356781","1080","0","","0"
"2021-06-12 00:02:03","1680000","0","1673251356","406755","1083","3","","0"
"2021-06-13 00:02:03","1680000","0","1674058794","807438","1083","0","","0"
"2021-06-14 00:02:02","1680000","0","1675104691","1045897","1083","0","","0"
"2021-06-15 00:02:03","1680000","0","1676181427","1076736","1086","3","","0"
"2021-06-16 00:02:03","1680000","0","1676932774","751347","1087","1","","0"
"2021-06-17 00:02:02","1680000","0","1677727424","794650","1088","1","","0"
"2021-06-18 00:02:02","1680000","0","1678137511","410087","1088","0","","0"
"2021-06-19 00:02:03","1680000","0","1678856157","718646","1087","-1","","0"
"2021-06-20 00:02:03","1680000","0","1679550862","694705","1088","1","","0"
"2021-06-21 00:02:03","1680000","0","1680406124","855262","1088","0","","0"
"2021-06-22 00:02:03","1680000","0","1680899011","492887","1090","2","","0"
"2021-06-23 00:02:03","1680000","0","1681576675","677664","1086","-4","","0"
"2021-06-24 00:02:03","1680000","0","1682284650","707975","1087","1","","0"
"2021-06-25 00:02:03","1680000","0","1675500225","-6784425","1084","-3","","0"
"2021-06-26 00:02:03","1680000","0","1676257085","756860","1084","0","","0"
"2021-06-27 00:02:03","1680000","0","1676834521","577436","1084","0","","0"
"2021-06-28 00:02:03","1680000","0","1676664206","-170315","1084","0","","0"
"2021-06-29 00:02:03","1680000","0","1677493530","829324","1085","1","","0"
"2021-06-30 00:02:02","1680000","0","1678175981","682451","1084","-1","","0"
"2021-07-01 00:02:03","1680000","0","1679041034","865053","1084","0","","0"
"2021-07-02 00:02:03","1680000","0","1679840510","799476","1086","2","","0"
"2021-07-03 00:02:04","1680000","0","1680046002","205492","1088","2","","0"
"2021-07-04 00:02:03","1680000","0","1680943500","897498","1086","-2","","0"
"2021-07-05 00:02:03","1680000","0","1682057915","1114415","1086","0","","0"
"2021-07-06 00:02:04","1680000","0","1681883191","-174724","1087","1","","0"
"2021-07-07 00:02:03","1680000","0","1683085567","1202376","1087","0","","0"
"2021-07-08 00:02:04","1680000","0","1683843548","757981","1087","0","","0"
"2021-07-09 00:02:04","1680000","0","1684669327","825779","1087","0","","0"
"2021-07-10 00:02:03","1680000","0","1685540344","871017","1087","0","","0"
"2021-07-11 00:02:03","1680000","0","1686466341","925997","1087","0","","0"
"2021-07-12 00:02:02","1680000","0","1687484690","1018349","1087","0","","0"
"2021-07-13 00:02:02","1690000","10000","1688594676","1109986","1086","-1","","0"
"2021-07-14 00:02:03","1690000","0","1689588298","993622","1087","1","","0"
"2021-07-15 00:02:03","1690000","0","1690467658","879360","1088","1","","0"
"2021-07-16 00:02:03","1690000","0","1691350037","882379","1088","0","","0"
"2021-07-17 00:02:02","1690000","0","1692287967","937930","1087","-1","","0"
"2021-07-18 00:02:02","1690000","0","1693302151","1014184","1087","0","","0"
"2021-07-19 00:02:03","1690000","0","1694172109","869958","1087","0","","0"
"2021-07-20 00:02:03","1690000","0","1692892027","-1280082","1087","0","","0"
"2021-07-21 00:02:02","1690000","0","1693947032","1055005","1087","0","","0"
"2021-07-22 00:02:02","1690000","0","1694819805","872773","1088","1","","0"
"2021-07-23 00:02:03","1690000","0","1695911099","1091294","1089","1","","0"
"2021-07-24 00:02:02","1690000","0","1697086568","1175469","1090","1","","0"
"2021-07-25 00:02:03","1690000","0","1698370235","1283667","1090","0","","0"
"2021-07-26 00:02:02","1690000","0","1699545494","1175259","1090","0","","0"
"2021-07-27 00:02:02","1690000","0","1700768158","1222664","1090","0","","0"
"2021-07-28 00:02:03","1690000","0","1701887924","1119766","1090","0","","0"
"2021-07-29 00:02:02","1690000","0","1702623302","735378","1091","1","","0"
"2021-07-30 00:02:02","1690000","0","1703482035","858733","1093","2","","0"
"2021-07-31 00:02:03","1690000","0","1704382561","900526","1094","1","","0"
"2021-08-01 00:02:02","1690000","0","1705145061","762500","1094","0","","0"
"2021-08-02 00:02:02","1690000","0","1706334546","1189485","1096","2","","0"
"2021-08-03 00:02:02","1690000","0","1707585814","1251268","1097","1","","0"
"2021-08-04 00:02:03","1690000","0","1708642820","1057006","1097","0","","0"
"2021-08-05 00:02:02","1690000","0","1709522928","880108","1099","2","","0"
"2021-08-06 00:02:02","1690000","0","1710579214","1056286","1100","1","","0"
"2021-08-07 00:02:02","1690000","0","1711168679","589465","1101","1","","0"
"2021-08-08 00:02:02","1690000","0","1712302048","1133369","1100","-1","","0"
"2021-08-09 00:02:02","1690000","0","1713586756","1284708","1100","0","","0"
"2021-08-10 00:02:03","1690000","0","1714801180","1214424","1100","0","","0"
"2021-08-11 00:02:03","1690000","0","1714801180","0","1101","1","","0"
"2021-08-12 00:02:02","1690000","0","1716991302","2190122","1102","1","","0"
"2021-08-13 00:02:02","1690000","0","1717892723","901421","1103","1","","0"
"2021-08-14 00:02:03","1690000","0","1718787175","894452","1102","-1","","0"
"2021-08-15 00:02:03","1700000","10000","1719786184","999009","1102","0","","0"
"2021-08-16 00:02:03","1700000","0","1720546193","760009","1102","0","","0"
"2021-08-17 00:02:03","1700000","0","1721154275","608082","1098","-4","","0"
"2021-08-18 00:02:02","1700000","0","1722609879","1455604","1099","1","","0"
"2021-08-19 00:02:02","1700000","0","1721937111","-672768","1099","0","","0"
"2021-08-20 00:02:02","1700000","0","1722826526","889415","1101","2","","0"
"2021-08-21 00:02:02","1700000","0","1723770301","943775","1104","3","","0"